Change the Weather History Date:

Thursday, February 28, 2013

  Actual Average (EPKT) Record (EPKT)
Temperature  
Mean Temperature 34 °F -  
Max Temperature 41 °F 45 °F 54 °F (2014)
Min Temperature 28 °F 31 °F 0 °F (2005)
Degree Days  
Heating Degree Days 30    
Moisture  
Dew Point 31 °F    
Average Humidity 91    
Maximum Humidity 100    
Minimum Humidity 70    
Precipitation  
Precipitation 0.00 in 0.04 in - ()
Sea Level Pressure  
Sea Level Pressure 30.28 in    
Wind  
Wind Speed 3 mph ()    
Max Wind Speed 6 mph    
Max Gust Speed -    
Visibility 1.5 miles    
Events Fog    
Averages and records for this station are not official NWS values.
T = Trace of Precipitation, MM = Missing Value Source: Averaged Metar Reports

Daily Weather History Graph

Daily Weather History Graph

Search for Another Location

Airport or City:

Trip Planner

Search our weather history database for the weather conditions in past years. The results will help you decide how hot, cold, wet, or windy it might be!

Date:

Astronomy

Feb. 28, 2013 Rise Set
Actual Time 6:32 AM CET 5:28 PM CET
Civil Twilight 6:00 AM CET 6:00 PM CET
Nautical Twilight 5:23 AM CET 6:37 PM CET
Astronomical Twilight 4:45 AM CET 7:15 PM CET
Moon 8:59 PM CET (2/28) 7:11 AM CET (2/28)
Length of Visible Light 12h 00m
Length of Day
10h 55m
Waning Gibbous, 92% of the Moon is Illuminated
Feb 28
Waning Gibbous
Mar 4
Last Quarter
Mar 11
New
Mar 19
First Quarter
Mar 27
Full

Hourly Weather History & Observations

Time (CET) Temp. Windchill Dew Point Humidity Pressure Visibility Wind Dir Wind Speed Gust Speed Precip Events Conditions
12:00 AM 33.8 °F 30.8 °F 32.0 °F 93% 30.36 in 1.6 mi ENE 3.5 mph - N/A   Mist
12:30 AM 32.0 °F 27.5 °F 32.0 °F 100% 30.36 in 1.6 mi East 4.6 mph - N/A   Mist
1:00 AM 33 °F - 32 °F 93% 30.41 in 1 mi ENE 4.5 mph - -   Mist
1:00 AM 33.8 °F 29.6 °F 32.0 °F 93% 30.36 in 1.2 mi ENE 4.6 mph - N/A   Mist
1:21 AM 32.0 °F 26.4 °F 32.0 °F 100% 30.36 in 1.0 mi ENE 5.8 mph - N/A   Scattered Clouds
1:30 AM 32.0 °F 27.5 °F 32.0 °F 100% 30.36 in 1.0 mi ENE 4.6 mph - N/A   Scattered Clouds
2:00 AM 30.2 °F 25.4 °F 30.2 °F 100% 30.36 in 0.2 mi NE 4.6 mph - N/A Fog Light Freezing Fog
2:30 AM 32.0 °F 27.5 °F 30.2 °F 93% 30.36 in 0.2 mi ENE 4.6 mph - N/A Fog Light Freezing Fog
3:00 AM 30.2 °F - 30.2 °F 100% 30.33 in 0.2 mi Variable 2.3 mph - N/A Fog Light Freezing Fog
3:30 AM 32.0 °F 27.5 °F 32.0 °F 100% 30.33 in 0.2 mi East 4.6 mph - N/A Fog Light Freezing Fog
4:00 AM 32.0 °F 27.5 °F 32.0 °F 100% 30.33 in 0.2 mi East 4.6 mph - N/A Fog Light Freezing Fog
4:30 AM 32.0 °F 27.5 °F 32.0 °F 100% 30.33 in 0.2 mi ENE 4.6 mph - N/A Fog Fog
5:00 AM 32.0 °F 28.7 °F 32.0 °F 100% 30.33 in 0.2 mi ENE 3.5 mph - N/A Fog Fog
5:30 AM 32.0 °F 27.5 °F 32.0 °F 100% 30.33 in 0.2 mi NE 4.6 mph - N/A Fog Fog
6:00 AM 32.0 °F 27.5 °F 32.0 °F 100% 30.33 in 0.2 mi NNE 4.6 mph - N/A Fog Fog
6:30 AM 32.0 °F 28.7 °F 32.0 °F 100% 30.33 in 0.1 mi NE 3.5 mph - N/A Fog Fog
7:00 AM 32 °F - 31 °F 97% 30.39 in 0 mi NNE 4.5 mph - - Fog Heavy Fog
7:00 AM 32.0 °F 28.7 °F 32.0 °F 100% 30.33 in 0.1 mi NNE 3.5 mph - N/A Fog Fog
7:20 AM 32.0 °F 27.5 °F 32.0 °F 100% 30.33 in 0.3 mi NNE 4.6 mph - N/A Fog Fog
7:30 AM 32.0 °F 27.5 °F 32.0 °F 100% 30.33 in 0.2 mi NE 4.6 mph - N/A Fog Fog
8:00 AM 32.0 °F - 32.0 °F 100% 30.33 in 0.2 mi Variable 2.3 mph - N/A Fog Fog
8:30 AM 32.0 °F 28.7 °F 32.0 °F 100% 30.33 in 0.2 mi NNE 3.5 mph - N/A Fog Fog
8:31 AM 32.0 °F 28.7 °F 32.0 °F 100% 30.33 in 0.4 mi NNE 3.5 mph - N/A Fog Fog
9:00 AM 32.0 °F 28.7 °F 32.0 °F 100% 30.33 in 0.4 mi NNE 3.5 mph - N/A Fog Fog
9:30 AM 32.0 °F 28.7 °F 32.0 °F 100% 30.33 in 0.5 mi North 3.5 mph - N/A Fog Fog
9:45 AM 32.0 °F - 32.0 °F 100% 30.33 in 0.6 mi Variable 2.3 mph - N/A Fog Fog
10:00 AM 32.0 °F - 32.0 °F 100% 30.33 in 0.7 mi Variable 2.3 mph - N/A   Overcast
10:30 AM 33.8 °F - 33.8 °F 100% 30.33 in 0.9 mi Variable 2.3 mph - N/A   Overcast
11:00 AM 33.8 °F - 32.0 °F 93% 30.33 in 1.2 mi Variable 1.2 mph - N/A   Overcast
11:30 AM 33.8 °F - 32.0 °F 93% 30.33 in 1.4 mi Calm Calm - N/A   Overcast
12:00 PM 35.6 °F - 32.0 °F 87% 30.33 in 1.6 mi Variable 1.2 mph - N/A   Overcast
12:30 PM 35.6 °F - 32.0 °F 87% 30.30 in 1.9 mi Variable 1.2 mph - N/A   Mostly Cloudy
1:00 PM 38 °F - 33 °F 76% 30.34 in 2 mi 2.2 mph - -   Mist
1:00 PM 37.4 °F - 32.0 °F 81% 30.30 in 2.2 mi Variable 1.2 mph - N/A   Mostly Cloudy
1:30 PM 37.4 °F - 32.0 °F 81% 30.27 in 2.5 mi Variable 1.2 mph - N/A   Mostly Cloudy
2:00 PM 39.2 °F 37.0 °F 32.0 °F 75% 30.27 in 2.8 mi East 3.5 mph - N/A   Partly Cloudy
2:30 PM 39.2 °F 37.0 °F 32.0 °F 75% 30.27 in 3.1 mi ESE 3.5 mph - N/A   Mist
3:00 PM 41.0 °F - 32.0 °F 70% 30.24 in 3.7 mi Variable 1.2 mph - N/A   Unknown
3:01 PM 41.0 °F - 32.0 °F 70% 30.24 in 3.7 mi Variable 1.2 mph - N/A   Partly Cloudy
3:30 PM 41.0 °F - 32.0 °F 70% 30.24 in 3.7 mi Variable 1.2 mph - N/A   Scattered Clouds
4:00 PM 41.0 °F - 32.0 °F 70% 30.24 in 3.7 mi Variable 1.2 mph - N/A   Unknown
4:30 PM 41.0 °F - 32.0 °F 70% 30.21 in 4.3 mi Variable 2.3 mph - N/A   Unknown
5:00 PM 39.2 °F - 32.0 °F 75% 30.21 in 3.7 mi Variable 1.2 mph - N/A   Unknown
5:30 PM 39.2 °F 37.0 °F 30.2 °F 70% 30.21 in 3.7 mi SW 3.5 mph - N/A   Unknown
6:00 PM 37.4 °F 34.9 °F 30.2 °F 75% 30.18 in 3.1 mi SSW 3.5 mph - N/A   Mist
6:30 PM 35.6 °F - 30.2 °F 81% 30.18 in 3.1 mi WNW 1.2 mph - N/A   Mist
7:00 PM 33 °F - 30 °F 85% 30.25 in 3 mi WSW 2.2 mph - -   Mist
7:00 PM 33.8 °F - 30.2 °F 87% 30.18 in 2.8 mi SW 2.3 mph - N/A   Mist
7:30 PM 33.8 °F 30.8 °F 30.2 °F 87% 30.18 in 2.5 mi SSW 3.5 mph - N/A   Mist
8:00 PM 33.8 °F - 30.2 °F 87% 30.18 in 2.2 mi Variable 1.2 mph - N/A   Mist
8:30 PM 32.0 °F - 28.4 °F 87% 30.15 in 1.9 mi Variable 2.3 mph - N/A   Mist
9:00 PM 28.4 °F 22.2 °F 28.4 °F 100% 30.15 in 1.2 mi SSW 5.8 mph - N/A   Mist
9:30 PM 32.0 °F - 30.2 °F 93% 30.15 in 1.6 mi South 1.2 mph - N/A   Overcast
10:00 PM 32.0 °F - 30.2 °F 93% 30.15 in 1.6 mi Calm Calm - N/A   Overcast
10:30 PM 32.0 °F - 30.2 °F 93% 30.15 in 1.6 mi Variable 2.3 mph - N/A   Overcast
11:00 PM 32.0 °F 28.7 °F 30.2 °F 93% 30.12 in 1.6 mi SW 3.5 mph - N/A   Overcast
11:30 PM 32.0 °F - 32.0 °F 100% 30.12 in 1.7 mi Variable 2.3 mph - N/A   Overcast